,,PA_Meas_PMT16A,,PR_Meas_QMR101_102,,RH_Meas_QMH101,,SR_Meas_QMS101,,TA_Meas_QMH101,,GenWind,,GenWind,
time,status,PA,status,PR,status,RH,status,SR,status,TA,status,DirAvg,status,SpdAvg,
2012-05-26, 00:00:04,VALID,915.958,VALID,0,VALID,95.3461,VALID,0,VALID,20.6179,VALID,129,VALID,1.25898,
2012-05-26, 00:01:04,VALID,915.918,VALID,0,VALID,95.2012,VALID,0,VALID,20.6374,VALID,125,VALID,1.34492,
2012-05-26, 00:02:04,VALID,915.915,VALID,0,VALID,95.0335,VALID,0,VALID,20.5984,VALID,132,VALID,1.28594,
2012-05-26, 00:03:04,VALID,915.909,VALID,0,VALID,94.9344,VALID,0,VALID,20.6374,VALID,129,VALID,1.14414,
2012-05-26, 00:04:04,VALID,915.894,VALID,0,VALID,94.881,VALID,0,VALID,20.6374,VALID,130,VALID,1.14805,
2012-05-26, 00:05:04,VALID,915.893,VALID,0,VALID,94.7896,VALID,0,VALID,20.6374,VALID,131,VALID,0.942578,
2012-05-26, 00:06:04,VALID,915.895,VALID,0,VALID,94.7667,VALID,0,VALID,20.6569,VALID,134,VALID,1.42227,
2012-05-26, 00:07:04,VALID,915.851,VALID,0,VALID,94.6752,VALID,0,VALID,20.6163,VALID,129,VALID,1.06367,
2012-05-26, 00:08:04,VALID,915.882,VALID,0,VALID,94.6752,VALID,0,VALID,20.6569,VALID,142,VALID,0.947656,
2012-05-26, 00:09:04,VALID,915.846,VALID,0,VALID,94.66,VALID,0,VALID,20.6764,VALID,134,VALID,1.20977,
2012-05-26, 00:10:04,VALID,915.844,VALID,0,VALID,94.5913,VALID,0,VALID,20.6569,VALID,134,VALID,0.765234,
2012-05-26, 00:11:04,VALID,915.837,VALID,0,VALID,94.5761,VALID,0,VALID,20.6764,VALID,134,VALID,0.552344,
2012-05-26, 00:12:04,VALID,915.839,VALID,0,VALID,94.5685,VALID,0,VALID,20.6764,VALID,137,VALID,0.623047,
2012-05-26, 00:13:04,VALID,915.823,VALID,0,VALID,94.538,VALID,0,VALID,20.6764,VALID,134,VALID,0.662109,
2012-05-26, 00:14:04,VALID,915.835,VALID,0,VALID,94.4313,VALID,0,VALID,20.6374,VALID,134,VALID,0.425,
2012-05-26, 00:15:04,VALID,915.863,VALID,0,VALID,94.3931,VALID,0,VALID,20.6374,VALID,150,VALID,1.03359,
2012-05-26, 00:16:04,VALID,915.87,VALID,0,VALID,94.4694,VALID,0,VALID,20.6179,VALID,165,VALID,1.08125,
2012-05-26, 00:17:04,VALID,915.865,VALID,0,VALID,94.599,VALID,0,VALID,20.6163,VALID,171,VALID,1.10312,
2012-05-26, 00:18:04,VALID,915.894,VALID,0,VALID,94.7286,VALID,0,VALID,20.6179,VALID,166,VALID,1.61289,
2012-05-26, 00:19:04,VALID,915.883,VALID,0,VALID,94.9496,VALID,0,VALID,20.6179,VALID,166,VALID,0.954687,
2012-05-26, 00:20:04,VALID,915.899,VALID,0,VALID,94.9115,VALID,0,VALID,20.5984,VALID,166,VALID,0.345703,
2012-05-26, 00:21:04,VALID,915.882,VALID,0,VALID,95.064,VALID,0,VALID,20.5984,VALID,166,VALID,0.951953,
2012-05-26, 00:22:04,VALID,915.865,VALID,0,VALID,95.2927,VALID,0,VALID,20.6569,VALID,166,VALID,1.16445,
2012-05-26, 00:23:04,VALID,915.836,VALID,0,VALID,95.3994,VALID,0,VALID,20.6358,VALID,166,VALID,1.24297,
2012-05-26, 00:24:04,VALID,915.808,VALID,0,VALID,95.4604,VALID,0,VALID,20.6764,VALID,166,VALID,0.890625,
2012-05-26, 00:25:04,VALID,915.81,VALID,0,VALID,95.5062,VALID,0,VALID,20.6959,VALID,166,VALID,0.942187,
2012-05-26, 00:26:04,VALID,915.814,VALID,0,VALID,95.5138,VALID,0,VALID,20.6764,VALID,166,VALID,0.991797,
2012-05-26, 00:27:04,VALID,915.817,VALID,0,VALID,95.5671,VALID,0.107441,VALID,20.7154,VALID,166,VALID,0.933984,
2012-05-26, 00:28:04,VALID,915.801,VALID,0,VALID,95.5671,VALID,0,VALID,20.7138,VALID,166,VALID,0.721094,
2012-05-26, 00:29:04,VALID,915.837,VALID,0,VALID,95.5671,VALID,0,VALID,20.7349,VALID,166,VALID,0.255469,
2012-05-26, 00:30:04,VALID,915.832,VALID,0,VALID,95.5595,VALID,0,VALID,20.7349,VALID,166,VALID,0,
2012-05-26, 00:31:04,VALID,915.816,VALID,0,VALID,95.4909,VALID,0,VALID,20.7154,VALID,166,VALID,0.619141,
2012-05-26, 00:32:04,VALID,915.783,VALID,0,VALID,95.59,VALID,0,VALID,20.7349,VALID,166,VALID,0.855859,
2012-05-26, 00:33:04,VALID,915.777,VALID,0,VALID,95.651,VALID,0,VALID,20.7544,VALID,156,VALID,0.9875,
2012-05-26, 00:34:04,VALID,915.755,VALID,0,VALID,95.6129,VALID,0,VALID,20.7333,VALID,156,VALID,0.239453,
2012-05-26, 00:35:04,VALID,915.746,VALID,0,VALID,95.5748,VALID,0,VALID,20.7349,VALID,156,VALID,0.803906,
2012-05-26, 00:36:04,VALID,915.742,VALID,0,VALID,95.5595,VALID,0,VALID,20.7154,VALID,161,VALID,1.08945,
2012-05-26, 00:37:04,VALID,915.708,VALID,0,VALID,95.5367,VALID,0,VALID,20.6959,VALID,160,VALID,1.21094,
2012-05-26, 00:38:04,VALID,915.714,VALID,0,VALID,95.6891,VALID,0,VALID,20.7154,VALID,160,VALID,0.700781,
2012-05-26, 00:39:04,VALID,915.691,VALID,0,VALID,95.6815,VALID,0,VALID,20.7349,VALID,136,VALID,0.769922,
2012-05-26, 00:40:04,VALID,915.649,VALID,0,VALID,95.6967,VALID,0,VALID,20.7349,VALID,157,VALID,0.810938,
2012-05-26, 00:41:04,VALID,915.655,VALID,0,VALID,95.7349,VALID,0,VALID,20.7333,VALID,148,VALID,0.423828,
2012-05-26, 00:42:04,VALID,915.621,VALID,0,VALID,95.7501,VALID,0,VALID,20.7544,VALID,127,VALID,1.0418,
2012-05-26, 00:43:04,VALID,915.637,VALID,0,VALID,95.6891,VALID,0,VALID,20.7349,VALID,137,VALID,0.5625,
2012-05-26, 00:44:04,VALID,915.618,VALID,0,VALID,95.6434,VALID,0,VALID,20.7349,VALID,133,VALID,0.601563,
2012-05-26, 00:45:04,VALID,915.62,VALID,0,VALID,95.6129,VALID,0,VALID,20.7349,VALID,137,VALID,1.00898,
2012-05-26, 00:46:04,VALID,915.624,VALID,0,VALID,95.5595,VALID,0,VALID,20.7154,VALID,129,VALID,0.989844,
2012-05-26, 00:47:04,VALID,915.644,VALID,0,VALID,95.4833,VALID,0,VALID,20.6975,VALID,123,VALID,1.06445,
2012-05-26, 00:48:04,VALID,915.609,VALID,0,VALID,95.5748,VALID,0,VALID,20.6764,VALID,125,VALID,1.28281,
2012-05-26, 00:49:04,VALID,915.588,VALID,0,VALID,95.5748,VALID,0,VALID,20.6569,VALID,114,VALID,1.29688,
2012-05-26, 00:50:04,VALID,915.56,VALID,0,VALID,95.6053,VALID,0,VALID,20.6374,VALID,119,VALID,1.2082,
2012-05-26, 00:51:04,VALID,915.536,VALID,0,VALID,95.6739,VALID,0,VALID,20.6163,VALID,124,VALID,1.13086,
2012-05-26, 00:52:04,VALID,915.549,VALID,0,VALID,95.6815,VALID,0,VALID,20.6179,VALID,124,VALID,0.8875,
2012-05-26, 00:53:04,VALID,915.494,VALID,0,VALID,95.7577,VALID,0,VALID,20.6179,VALID,126,VALID,0.729297,
2012-05-26, 00:54:04,VALID,915.486,VALID,0,VALID,95.7501,VALID,0,VALID,20.6374,VALID,132,VALID,0.536719,
2012-05-26, 00:55:04,VALID,915.497,VALID,0,VALID,95.7654,VALID,0,VALID,20.6163,VALID,136,VALID,0.321094,
2012-05-26, 00:56:04,VALID,915.468,VALID,0,VALID,95.7806,VALID,0,VALID,20.6569,VALID,156,VALID,0.93125,
2012-05-26, 00:57:04,VALID,915.468,VALID,0,VALID,95.7196,VALID,0,VALID,20.6569,VALID,127,VALID,0.280469,
2012-05-26, 00:58:04,VALID,915.405,VALID,0,VALID,95.7272,VALID,0,VALID,20.6569,VALID,154,VALID,0.720312,
2012-05-26, 00:59:04,VALID,915.447,VALID,0,VALID,95.7196,VALID,0,VALID,20.6374,VALID,149,VALID,0.987109,
2012-05-26, 01:00:04,VALID,915.425,VALID,0,VALID,95.6891,VALID,0,VALID,20.6569,VALID,143,VALID,0.673047,
2012-05-26, 01:01:04,VALID,915.453,VALID,0,VALID,95.7272,VALID,0,VALID,20.6569,VALID,142,VALID,0.819531,
2012-05-26, 01:02:04,VALID,915.442,VALID,0,VALID,95.6586,VALID,0,VALID,20.6764,VALID,142,VALID,0.572656,
2012-05-26, 01:03:04,VALID,915.405,VALID,0,VALID,95.6281,VALID,0,VALID,20.7154,VALID,142,VALID,0.462891,
2012-05-26, 01:04:04,VALID,915.417,VALID,0,VALID,95.5671,VALID,0,VALID,20.7349,VALID,142,VALID,1.11055,
2012-05-26, 01:05:04,VALID,915.378,VALID,0,VALID,95.5138,VALID,0,VALID,20.8129,VALID,142,VALID,0.824219,
2012-05-26, 01:06:04,VALID,915.382,VALID,0,VALID,95.3537,VALID,0,VALID,20.8129,VALID,141,VALID,0.723047,
2012-05-26, 01:07:04,VALID,915.388,VALID,0,VALID,95.1936,VALID,0,VALID,20.8519,VALID,142,VALID,0.782422,
2012-05-26, 01:08:04,VALID,915.384,VALID,0,VALID,94.9115,VALID,0,VALID,20.8324,VALID,142,VALID,0.41875,
2012-05-26, 01:09:04,VALID,915.375,VALID,0,VALID,94.7743,VALID,0,VALID,20.8504,VALID,141,VALID,0.589453,
2012-05-26, 01:10:04,VALID,915.424,VALID,0,VALID,94.6676,VALID,0,VALID,20.8504,VALID,141,VALID,0.540625,
2012-05-26, 01:11:04,VALID,915.412,VALID,0,VALID,94.3855,VALID,0,VALID,20.891,VALID,141,VALID,0.562109,
2012-05-26, 01:12:04,VALID,915.429,VALID,0,VALID,94.3093,VALID,0,VALID,20.891,VALID,141,VALID,0.360156,
2012-05-26, 01:13:04,VALID,915.431,VALID,0,VALID,93.8671,VALID,0,VALID,20.8113,VALID,141,VALID,0.901563,
2012-05-26, 01:14:04,VALID,915.401,VALID,0,VALID,93.8595,VALID,0,VALID,20.7918,VALID,141,VALID,0.520703,
2012-05-26, 01:15:04,VALID,915.388,VALID,0,VALID,94.0501,VALID,0,VALID,20.7934,VALID,141,VALID,0.526563,
2012-05-26, 01:16:04,VALID,915.412,VALID,0,VALID,94.2178,VALID,0,VALID,20.7528,VALID,141,VALID,0.189063,
2012-05-26, 01:17:05,VALID,915.397,VALID,0,VALID,94.2864,VALID,0,VALID,20.7528,VALID,141,VALID,0.192578,
2012-05-26, 01:18:05,VALID,915.393,VALID,0,VALID,94.4694,VALID,0,VALID,20.7333,VALID,141,VALID,0.305078,
2012-05-26, 01:19:05,VALID,915.41,VALID,0,VALID,94.5227,VALID,0,VALID,20.7154,VALID,141,VALID,0.065625,
2012-05-26, 01:20:05,VALID,915.435,VALID,0,VALID,94.0348,VALID,0,VALID,20.6179,VALID,141,VALID,0,
2012-05-26, 01:21:05,VALID,915.427,VALID,0,VALID,93.7833,VALID,0,VALID,20.5204,VALID,141,VALID,0,
2012-05-26, 01:22:05,VALID,915.409,VALID,0,VALID,93.9434,VALID,0,VALID,20.4213,VALID,141,VALID,0,
2012-05-26, 01:23:05,VALID,915.406,VALID,0,VALID,94.0653,VALID,0,VALID,20.3433,VALID,141,VALID,0,
2012-05-26, 01:24:05,VALID,915.386,VALID,0,VALID,93.8595,VALID,0,VALID,20.2263,VALID,141,VALID,0.967969,
2012-05-26, 01:25:05,VALID,915.389,VALID,0,VALID,94.5227,VALID,0,VALID,20.2083,VALID,141,VALID,0.820703,
2012-05-26, 01:26:05,VALID,915.389,VALID,0,VALID,94.9344,VALID,0,VALID,20.1678,VALID,141,VALID,0.635938,
2012-05-26, 01:27:05,VALID,915.408,VALID,0,VALID,95.3156,VALID,0,VALID,20.1888,VALID,141,VALID,0.492578,
2012-05-26, 01:28:05,VALID,915.378,VALID,0,VALID,95.6586,VALID,0,VALID,20.2458,VALID,141,VALID,0.545703,
2012-05-26, 01:29:05,VALID,915.358,VALID,0,VALID,95.7958,VALID,0,VALID,20.2458,VALID,141,VALID,0.509375,
2012-05-26, 01:30:05,VALID,915.378,VALID,0,VALID,95.9331,VALID,0,VALID,20.3058,VALID,141,VALID,0.437891,
2012-05-26, 01:31:05,VALID,915.351,VALID,0,VALID,95.8492,VALID,0,VALID,20.2863,VALID,141,VALID,0.595703,
2012-05-26, 01:32:05,VALID,915.328,VALID,0,VALID,95.9559,VALID,0,VALID,20.2863,VALID,141,VALID,0.757031,
2012-05-26, 01:33:05,VALID,915.307,VALID,0,VALID,96.0169,VALID,0,VALID,20.3253,VALID,141,VALID,0.74375,
2012-05-26, 01:34:05,VALID,915.282,VALID,0,VALID,96.0398,VALID,0,VALID,20.3253,VALID,141,VALID,0.796484,
2012-05-26, 01:35:05,VALID,915.272,VALID,0,VALID,96.0703,VALID,0,VALID,20.3838,VALID,141,VALID,1.03086,
2012-05-26, 01:36:05,VALID,915.248,VALID,0,VALID,95.9636,VALID,0,VALID,20.3838,VALID,141,VALID,0.824219,
2012-05-26, 01:37:05,VALID,915.21,VALID,0,VALID,95.9407,VALID,0,VALID,20.4228,VALID,141,VALID,0.775391,
2012-05-26, 01:38:05,VALID,915.206,VALID,0,VALID,95.8568,VALID,0,VALID,20.4228,VALID,141,VALID,0.848828,
2012-05-26, 01:39:05,VALID,915.206,VALID,0,VALID,95.8111,VALID,0,VALID,20.4408,VALID,141,VALID,0.909766,
2012-05-26, 01:40:05,VALID,915.219,VALID,0,VALID,95.712,VALID,0,VALID,20.4813,VALID,141,VALID,0.934766,
2012-05-26, 01:41:05,VALID,915.201,VALID,0,VALID,95.6053,VALID,0,VALID,20.4603,VALID,141,VALID,0.70625,
2012-05-26, 01:42:05,VALID,915.215,VALID,0,VALID,95.5214,VALID,0.107441,VALID,20.4813,VALID,141,VALID,1.11055,
2012-05-26, 01:43:05,VALID,915.176,VALID,0,VALID,95.4833,VALID,0,VALID,20.4798,VALID,141,VALID,1.25469,
2012-05-26, 01:44:05,VALID,915.17,VALID,0,VALID,95.3842,VALID,0,VALID,20.4798,VALID,141,VALID,0.990234,
2012-05-26, 01:45:05,VALID,915.145,VALID,0,VALID,95.2927,VALID,0,VALID,20.4813,VALID,141,VALID,0.719531,
2012-05-26, 01:46:05,VALID,915.101,VALID,0,VALID,95.2241,VALID,0,VALID,20.4813,VALID,141,VALID,1.01328,
2012-05-26, 01:47:05,VALID,915.081,VALID,0,VALID,95.2698,VALID,0,VALID,20.4829,VALID,141,VALID,1.20664,
2012-05-26, 01:48:05,VALID,915.064,VALID,0,VALID,95.3232,VALID,0,VALID,20.4228,VALID,141,VALID,1.18984,
2012-05-26, 01:49:05,VALID,915.03,VALID,0,VALID,95.3613,VALID,0,VALID,20.4033,VALID,141,VALID,0.972266,
2012-05-26, 01:50:05,VALID,914.995,VALID,0,VALID,95.4452,VALID,0,VALID,20.3838,VALID,141,VALID,0.865625,
2012-05-26, 01:51:05,VALID,915.032,VALID,0,VALID,95.5062,VALID,0,VALID,20.3433,VALID,141,VALID,0.910156,
2012-05-26, 01:52:05,VALID,914.993,VALID,0,VALID,95.5443,VALID,0,VALID,20.3643,VALID,141,VALID,0.608203,
2012-05-26, 01:53:05,VALID,914.999,VALID,0,VALID,95.651,VALID,0,VALID,20.3643,VALID,141,VALID,0.815234,
2012-05-26, 01:54:05,VALID,915.024,VALID,0,VALID,95.7044,VALID,0,VALID,20.3643,VALID,141,VALID,0.373437,
2012-05-26, 01:55:05,VALID,914.962,VALID,0,VALID,95.7501,VALID,0,VALID,20.3448,VALID,135,VALID,0.891016,
2012-05-26, 01:56:05,VALID,914.979,VALID,0,VALID,95.7882,VALID,0,VALID,20.3043,VALID,142,VALID,0.675781,
2012-05-26, 01:57:05,VALID,914.936,VALID,0,VALID,95.834,VALID,0,VALID,20.2863,VALID,139,VALID,0.600781,
2012-05-26, 01:58:05,VALID,914.938,VALID,0,VALID,95.8645,VALID,0,VALID,20.2863,VALID,139,VALID,0.951953,
2012-05-26, 01:59:05,VALID,914.929,VALID,0,VALID,95.9407,VALID,0,VALID,20.2668,VALID,139,VALID,0.455469,
2012-05-26, 02:00:05,VALID,914.933,VALID,0,VALID,95.9712,VALID,0,VALID,20.2458,VALID,139,VALID,0.836719,
2012-05-26, 02:01:05,VALID,914.955,VALID,0,VALID,96.0322,VALID,0,VALID,20.2668,VALID,139,VALID,0.868359,
2012-05-26, 02:02:05,VALID,914.942,VALID,0,VALID,96.0855,VALID,0,VALID,20.2473,VALID,165,VALID,0.894531,
2012-05-26, 02:03:05,VALID,914.938,VALID,0,VALID,96.1618,VALID,0,VALID,20.2473,VALID,155,VALID,0.805859,
2012-05-26, 02:04:05,VALID,914.921,VALID,0,VALID,96.1846,VALID,0,VALID,20.2473,VALID,149,VALID,0.338281,
2012-05-26, 02:05:05,VALID,914.949,VALID,0,VALID,96.2228,VALID,0,VALID,20.2668,VALID,159,VALID,0.237891,
2012-05-26, 02:06:05,VALID,914.916,VALID,0,VALID,96.2533,VALID,0,VALID,20.2668,VALID,153,VALID,0.488672,
2012-05-26, 02:07:05,VALID,914.92,VALID,0,VALID,96.2456,VALID,0,VALID,20.2458,VALID,153,VALID,0.0515625,
2012-05-26, 02:08:05,VALID,914.971,VALID,0,VALID,96.3066,VALID,0,VALID,20.2863,VALID,153,VALID,0.221094,
2012-05-26, 02:09:05,VALID,914.977,VALID,0,VALID,96.3066,VALID,0,VALID,20.3253,VALID,153,VALID,0,
2012-05-26, 02:10:05,VALID,914.961,VALID,0,VALID,96.2914,VALID,0,VALID,20.3253,VALID,153,VALID,0,
2012-05-26, 02:11:05,VALID,914.972,VALID,0,VALID,96.2609,VALID,0,VALID,20.3448,VALID,153,VALID,0,
2012-05-26, 02:12:05,VALID,914.952,VALID,0,VALID,96.2151,VALID,0,VALID,20.3253,VALID,153,VALID,0,
2012-05-26, 02:13:05,VALID,914.948,VALID,0,VALID,96.177,VALID,0,VALID,20.3253,VALID,153,VALID,0,
2012-05-26, 02:14:05,VALID,914.965,VALID,0,VALID,96.2304,VALID,0,VALID,20.3253,VALID,153,VALID,0,
2012-05-26, 02:15:05,VALID,914.962,VALID,0,VALID,96.1846,VALID,0,VALID,20.3448,VALID,153,VALID,0.435156,
2012-05-26, 02:16:05,VALID,915.014,VALID,0,VALID,96.177,VALID,0,VALID,20.3448,VALID,153,VALID,0.492188,
2012-05-26, 02:17:05,VALID,915.006,VALID,0,VALID,96.1618,VALID,0,VALID,20.3643,VALID,153,VALID,0.675781,
2012-05-26, 02:18:05,VALID,914.978,VALID,0,VALID,96.1846,VALID,0,VALID,20.3643,VALID,153,VALID,0.244531,
2012-05-26, 02:19:05,VALID,914.964,VALID,0,VALID,96.1389,VALID,0,VALID,20.3643,VALID,153,VALID,0,
2012-05-26, 02:20:05,VALID,914.939,VALID,0,VALID,96.1389,VALID,0,VALID,20.3643,VALID,153,VALID,0,
2012-05-26, 02:21:05,VALID,914.902,VALID,0,VALID,95.8721,VALID,0,VALID,20.2863,VALID,153,VALID,0,
2012-05-26, 02:22:05,VALID,914.902,VALID,0,VALID,95.7044,VALID,0,VALID,20.1888,VALID,153,VALID,0,
2012-05-26, 02:23:05,VALID,914.875,VALID,0,VALID,95.8263,VALID,0,VALID,20.1693,VALID,153,VALID,0,
2012-05-26, 02:24:05,VALID,914.88,VALID,0,VALID,95.773,VALID,0,VALID,20.1498,VALID,153,VALID,0,
2012-05-26, 02:25:05,VALID,914.876,VALID,0,VALID,95.7272,VALID,0,VALID,20.0913,VALID,153,VALID,0,
2012-05-26, 02:26:05,VALID,914.892,VALID,0,VALID,95.8797,VALID,0,VALID,20.0733,VALID,153,VALID,0,
2012-05-26, 02:27:05,VALID,914.861,VALID,0,VALID,95.9864,VALID,0,VALID,20.0718,VALID,153,VALID,0,
2012-05-26, 02:28:05,VALID,914.844,VALID,0,VALID,96.0474,VALID,0,VALID,20.0718,VALID,153,VALID,0,
2012-05-26, 02:29:05,VALID,914.836,VALID,0,VALID,96.0245,VALID,0,VALID,20.0523,VALID,153,VALID,0,
2012-05-26, 02:30:05,VALID,914.859,VALID,0,VALID,96.1236,VALID,0,VALID,20.0523,VALID,153,VALID,0,
2012-05-26, 02:31:05,VALID,914.883,VALID,0,VALID,96.1084,VALID,0,VALID,20.0328,VALID,153,VALID,0,
2012-05-26, 02:32:05,VALID,914.882,VALID,0,VALID,96.1084,VALID,0,VALID,20.0133,VALID,153,VALID,0,
2012-05-26, 02:33:05,VALID,914.911,VALID,0,VALID,96.1008,VALID,0,VALID,19.9938,VALID,153,VALID,0,
2012-05-26, 02:34:05,VALID,914.922,VALID,0,VALID,96.1084,VALID,0,VALID,20.0133,VALID,153,VALID,0,
2012-05-26, 02:35:05,VALID,914.962,VALID,0,VALID,96.2151,VALID,0,VALID,20.0523,VALID,153,VALID,0,
2012-05-26, 02:36:05,VALID,914.946,VALID,0,VALID,96.1389,VALID,0,VALID,20.0733,VALID,153,VALID,0,
2012-05-26, 02:37:05,VALID,914.93,VALID,0,VALID,96.0779,VALID,0,VALID,20.0328,VALID,153,VALID,0,
2012-05-26, 02:38:05,VALID,914.935,VALID,0,VALID,96.1084,VALID,0,VALID,20.0523,VALID,153,VALID,0,
2012-05-26, 02:39:05,VALID,914.948,VALID,0,VALID,96.1008,VALID,0,VALID,20.0718,VALID,153,VALID,0,
2012-05-26, 02:40:05,VALID,914.953,VALID,0,VALID,95.9559,VALID,0,VALID,20.0133,VALID,153,VALID,0,
2012-05-26, 02:41:05,VALID,914.935,VALID,0,VALID,96.0474,VALID,0,VALID,19.9938,VALID,153,VALID,0,
2012-05-26, 02:42:05,VALID,914.945,VALID,0,VALID,96.2075,VALID,0,VALID,20.0328,VALID,153,VALID,0.090625,
2012-05-26, 02:43:05,VALID,914.951,VALID,0,VALID,96.055,VALID,0,VALID,20.0133,VALID,153,VALID,0.488672,
2012-05-26, 02:44:05,VALID,914.914,VALID,0,VALID,95.9864,VALID,0,VALID,19.9548,VALID,153,VALID,0.657422,
2012-05-26, 02:45:05,VALID,914.933,VALID,0,VALID,96.1008,VALID,0,VALID,19.9353,VALID,153,VALID,0.541406,
2012-05-26, 02:46:05,VALID,914.96,VALID,0,VALID,96.2075,VALID,0,VALID,19.9548,VALID,153,VALID,0.566797,
2012-05-26, 02:47:05,VALID,914.91,VALID,0,VALID,96.299,VALID,0,VALID,19.9743,VALID,153,VALID,0.598828,
2012-05-26, 02:48:05,VALID,914.924,VALID,0,VALID,96.3066,VALID,0,VALID,19.9743,VALID,153,VALID,0.730859,
2012-05-26, 02:49:05,VALID,914.891,VALID,0,VALID,96.3066,VALID,0,VALID,19.9953,VALID,153,VALID,0.825,
2012-05-26, 02:50:05,VALID,914.933,VALID,0,VALID,96.3371,VALID,0,VALID,19.9938,VALID,153,VALID,0.653906,
2012-05-26, 02:51:05,VALID,914.928,VALID,0,VALID,96.3142,VALID,0,VALID,19.9743,VALID,153,VALID,0.819531,
2012-05-26, 02:52:05,VALID,914.888,VALID,0,VALID,96.3295,VALID,0,VALID,19.9953,VALID,153,VALID,0.633594,
2012-05-26, 02:53:05,VALID,914.89,VALID,0,VALID,96.3905,VALID,0,VALID,20.0133,VALID,153,VALID,0.744922,
2012-05-26, 02:54:05,VALID,914.88,VALID,0,VALID,96.3981,VALID,0,VALID,20.0133,VALID,153,VALID,0.70625,
2012-05-26, 02:55:05,VALID,914.856,VALID,0,VALID,96.4133,VALID,0,VALID,20.0133,VALID,153,VALID,0.891016,
2012-05-26, 02:56:05,VALID,914.872,VALID,0,VALID,96.4438,VALID,0,VALID,20.0328,VALID,153,VALID,0.883203,
2012-05-26, 02:57:05,VALID,914.858,VALID,0,VALID,96.3447,VALID,0,VALID,20.0133,VALID,153,VALID,0.795313,
2012-05-26, 02:58:05,VALID,914.834,VALID,0,VALID,96.421,VALID,0,VALID,19.9938,VALID,153,VALID,1.0668,
2012-05-26, 02:59:05,VALID,914.843,VALID,0,VALID,96.4133,VALID,0,VALID,19.9938,VALID,153,VALID,1.02813,
2012-05-26, 03:00:05,VALID,914.85,VALID,0,VALID,96.4057,VALID,0,VALID,20.0148,VALID,132,VALID,0.766406,
2012-05-26, 03:01:05,VALID,914.831,VALID,0,VALID,96.5124,VALID,0,VALID,20.0148,VALID,132,VALID,1.16484,
2012-05-26, 03:02:05,VALID,914.891,VALID,0,VALID,96.4515,VALID,0,VALID,19.9743,VALID,132,VALID,0.75,
2012-05-26, 03:03:05,VALID,914.878,VALID,0,VALID,96.3829,VALID,0,VALID,19.9563,VALID,134,VALID,0.211328,
2012-05-26, 03:04:05,VALID,914.878,VALID,0,VALID,96.3905,VALID,0,VALID,19.9368,VALID,155,VALID,0.403906,
2012-05-26, 03:05:05,VALID,914.878,VALID,0,VALID,96.3371,VALID,0,VALID,19.9173,VALID,148,VALID,0.551172,
2012-05-26, 03:06:05,VALID,914.841,VALID,0,VALID,96.3676,VALID,0,VALID,19.8783,VALID,148,VALID,0.680859,
2012-05-26, 03:07:05,VALID,914.804,VALID,0,VALID,96.3371,VALID,0,VALID,19.8393,VALID,146,VALID,0.683984,
2012-05-26, 03:08:05,VALID,914.788,VALID,0,VALID,96.36,VALID,0,VALID,19.7808,VALID,143,VALID,0.0972656,
2012-05-26, 03:09:05,VALID,914.777,VALID,0,VALID,96.3676,VALID,0,VALID,19.7403,VALID,143,VALID,0.338672,
2012-05-26, 03:10:05,VALID,914.762,VALID,0,VALID,96.3447,VALID,0,VALID,19.7223,VALID,143,VALID,0.401172,
2012-05-26, 03:11:05,VALID,914.783,VALID,0,VALID,96.421,VALID,0,VALID,19.6623,VALID,134,VALID,0.576563,
2012-05-26, 03:12:05,VALID,914.748,VALID,0,VALID,96.4286,VALID,0.107441,VALID,19.6218,VALID,134,VALID,0.755078,
2012-05-26, 03:13:05,VALID,914.709,VALID,0,VALID,96.5201,VALID,0.107441,VALID,19.6428,VALID,134,VALID,0.809375,
2012-05-26, 03:14:05,VALID,914.678,VALID,0,VALID,96.642,VALID,0.107441,VALID,19.6413,VALID,139,VALID,0.883203,
2012-05-26, 03:15:05,VALID,914.669,VALID,0,VALID,96.6649,VALID,0.107441,VALID,19.6818,VALID,135,VALID,0.981641,
2012-05-26, 03:16:05,VALID,914.689,VALID,0,VALID,96.6878,VALID,0,VALID,19.6623,VALID,135,VALID,0.871484,
2012-05-26, 03:17:05,VALID,914.675,VALID,0,VALID,96.825,VALID,0,VALID,19.6998,VALID,135,VALID,0.986719,
2012-05-26, 03:18:05,VALID,914.695,VALID,0,VALID,96.8021,VALID,0.107441,VALID,19.7193,VALID,135,VALID,0.560156,
2012-05-26, 03:19:05,VALID,914.703,VALID,0,VALID,96.8174,VALID,0,VALID,19.7193,VALID,135,VALID,0.434766,
2012-05-26, 03:20:05,VALID,914.708,VALID,0,VALID,96.8479,VALID,0,VALID,19.7598,VALID,135,VALID,0.151562,
2012-05-26, 03:21:05,VALID,914.662,VALID,0,VALID,96.7945,VALID,0.107441,VALID,19.7403,VALID,135,VALID,0.434766,
2012-05-26, 03:22:05,VALID,914.672,VALID,0,VALID,96.825,VALID,0.107441,VALID,19.7598,VALID,135,VALID,0.190234,
2012-05-26, 03:23:05,VALID,914.664,VALID,0,VALID,96.886,VALID,0,VALID,19.7583,VALID,135,VALID,0.353516,
2012-05-26, 03:24:05,VALID,914.62,VALID,0,VALID,96.9089,VALID,0.107441,VALID,19.7778,VALID,135,VALID,0.0449219,
2012-05-26, 03:25:05,VALID,914.605,VALID,0,VALID,96.9165,VALID,0,VALID,19.8183,VALID,135,VALID,0.167969,
2012-05-26, 03:26:05,VALID,914.606,VALID,0,VALID,96.8707,VALID,0,VALID,19.7988,VALID,135,VALID,0.315234,
2012-05-26, 03:27:05,VALID,914.549,VALID,0,VALID,96.8479,VALID,0,VALID,19.8198,VALID,135,VALID,0.13125,
2012-05-26, 03:28:05,VALID,914.546,VALID,0,VALID,96.7107,VALID,0,VALID,19.7403,VALID,134,VALID,0.339453,
2012-05-26, 03:29:05,VALID,914.521,VALID,0,VALID,96.6802,VALID,0,VALID,19.6818,VALID,135,VALID,0.188672,
2012-05-26, 03:30:05,VALID,914.511,VALID,0,VALID,96.7488,VALID,0,VALID,19.6833,VALID,135,VALID,0,
2012-05-26, 03:31:05,VALID,914.515,VALID,0,VALID,96.8098,VALID,0,VALID,19.6638,VALID,135,VALID,0,
2012-05-26, 03:32:05,VALID,914.504,VALID,0,VALID,96.8479,VALID,0,VALID,19.6623,VALID,135,VALID,0,
2012-05-26, 03:33:05,VALID,914.504,VALID,0,VALID,96.9241,VALID,0,VALID,19.7028,VALID,134,VALID,0,
2012-05-26, 03:34:05,VALID,914.522,VALID,0,VALID,96.9546,VALID,0,VALID,19.7418,VALID,135,VALID,0,
2012-05-26, 03:35:05,VALID,914.52,VALID,0,VALID,96.9394,VALID,0,VALID,19.7208,VALID,135,VALID,0,
2012-05-26, 03:36:05,VALID,914.522,VALID,0,VALID,96.9241,VALID,0,VALID,19.7418,VALID,135,VALID,0,
2012-05-26, 03:37:05,VALID,914.5,VALID,0,VALID,96.9089,VALID,0,VALID,19.7013,VALID,135,VALID,0,
2012-05-26, 03:38:05,VALID,914.489,VALID,0,VALID,96.8784,VALID,0,VALID,19.7223,VALID,135,VALID,0,
2012-05-26, 03:39:05,VALID,914.5,VALID,0,VALID,96.8936,VALID,0,VALID,19.7028,VALID,135,VALID,0,
2012-05-26, 03:40:05,VALID,914.448,VALID,0,VALID,96.9241,VALID,0,VALID,19.7223,VALID,135,VALID,0,
2012-05-26, 03:41:05,VALID,914.435,VALID,0,VALID,96.8936,VALID,0,VALID,19.6803,VALID,135,VALID,0,
2012-05-26, 03:42:05,VALID,914.408,VALID,0,VALID,96.886,VALID,0.107441,VALID,19.6803,VALID,135,VALID,0,
2012-05-26, 03:43:05,VALID,914.406,VALID,0,VALID,96.9012,VALID,0,VALID,19.7013,VALID,135,VALID,0.773047,
2012-05-26, 03:44:05,VALID,914.383,VALID,0,VALID,96.9317,VALID,0,VALID,19.7403,VALID,135,VALID,0.655469,
2012-05-26, 03:45:05,VALID,914.389,VALID,0,VALID,96.9241,VALID,0,VALID,19.7208,VALID,134,VALID,0.512891,
2012-05-26, 03:46:05,VALID,914.405,VALID,0,VALID,96.9241,VALID,0,VALID,19.7598,VALID,135,VALID,0.340234,